Location: Codford Saint Peter
(51.1597°N, 2.0531°W)
Time: 04:14:15
(UTC+00:00)

Cosmos 1025 Rocket - Pass Details

Date: 18 September 2020
Orbit: 595 x 617 km, 82.5° (Epoch: 20 October)

Event Time Altitude Azimuth Distance (km) Brightness Sun altitude
Rises 20:22:10 0° 343° (NNW) 2,885 7.2 -19.9°
Reaches altitude 10° 20:24:30 10° 335° (NNW) 1,979 6.4 -20.2°
Maximum altitude 20:28:31 37° 269° (W) 971 4.5 -20.8°
Drops below altitude 10° 20:32:32 10° 202° (SSW) 1,974 5.5 -21.3°
Enters shadow 20:33:04 - 199° (SSW) 2,175 5.7 -21.4°
